IZ1UQG-2 Weather Reports


Display with metric or nautical units.
time (UTC)temp
F
wind
direction
speed
MPH
gust
MPH
rain 1hr
in
rain 24hr
in
rain mn
in
humidity
%
barometer
mb
20260504043003 57 333 1.0 4.0 0.00 0.00 0.00 71 1015.3
20260504042903 57 332 1.0 5.0 0.00 0.00 0.00 71 1015.3
20260504042804 57 335 1.0 5.0 0.00 0.00 0.00 71 1015.2
20260504042703 57 333 2.0 6.0 0.00 0.00 0.00 71 1015.3
20260504042504 57 330 2.0 6.0 0.00 0.00 0.00 70 1015.3
20260504042403 57 329 2.0 6.0 0.00 0.00 0.00 71 1015.3
20260504042304 57 329 3.0 6.0 0.00 0.00 0.00 71 1015.2
20260504042212 57 328 3.0 6.0 0.00 0.00 0.00 71 1015.3
20260504042103 57 327 3.0 6.0 0.00 0.00 0.00 71 1015.2
20260504042004 57 326 3.0 6.0 0.00 0.00 0.00 71 1015.2
20260504041903 57 325 3.0 6.0 0.00 0.00 0.00 71 1015.2
20260504041804 57 322 3.0 6.0 0.00 0.00 0.00 71 1015.3
20260504041703 57 321 2.0 5.0 0.00 0.00 0.00 71 1015.2
20260504041603 57 320 2.0 5.0 0.00 0.00 0.00 71 1015.2
20260504041504 57 319 2.0 4.0 0.00 0.00 0.00 71 1015.2
20260504041212 57 323 2.0 4.0 0.00 0.00 0.00 71 1015.2
20260504041104 57 324 2.0 4.0 0.00 0.00 0.00 71 1015.2
20260504041003 57 324 2.0 4.0 0.00 0.00 0.00 71 1015.3
20260504040804 57 326 2.0 6.0 0.00 0.00 0.00 71 1015.3
20260504040703 57 325 3.0 6.0 0.00 0.00 0.00 71 1015.2
20260504040603 57 325 3.0 6.0 0.00 0.00 0.00 71 1015.2
20260504040505 57 325 3.0 6.0 0.00 0.00 0.00 71 1015.3
20260504040303 57 325 3.0 6.0 0.00 0.00 0.00 71 1015.1
20260504040214 57 323 3.0 6.0 0.00 0.00 0.00 71 1015.2
20260504040103 57 322 4.0 6.0 0.00 0.00 0.00 71 1015.1
20260504035904 57 321 4.0 6.0 0.00 0.00 0.00 70 1015.1
20260504035803 57 320 3.0 6.0 0.00 0.00 0.00 70 1015.1
20260504035703 57 320 3.0 6.0 0.00 0.00 0.00 70 1015.2
20260504035604 57 320 3.0 6.0 0.00 0.00 0.00 70 1015.3
20260504035505 57 319 3.0 6.0 0.00 0.00 0.00 70 1015.2
20260504035404 57 319 3.0 6.0 0.00 0.00 0.00 70 1015.2
20260504035304 57 318 3.0 6.0 0.00 0.00 0.00 70 1015.2
20260504035213 57 317 2.0 6.0 0.00 0.00 0.00 70 1015.2
20260504035104 57 314 2.0 5.0 0.00 0.00 0.00 70 1015.1
20260504034904 58 305 2.0 4.0 0.00 0.00 0.00 70 1015.1
20260504034803 58 295 2.0 4.0 0.00 0.00 0.00 70 1015.1
20260504034703 58 285 2.0 4.0 0.00 0.00 0.00 70 1015.1
20260504034603 58 279 2.0 4.0 0.00 0.00 0.00 70 1015.2
20260504034505 58 275 2.0 4.0 0.00 0.00 0.00 70 1015.1
20260504034304 58 272 2.0 4.0 0.00 0.00 0.00 70 1015.2
20260504034214 57 274 2.0 4.0 0.00 0.00 0.00 71 1015.2
20260504034104 57 278 2.0 4.0 0.00 0.00 0.00 70 1015.1
20260504034003 57 281 2.0 4.0 0.00 0.00 0.00 70 1015.1
20260504033904 58 289 2.0 4.0 0.00 0.00 0.00 70 1015.1
20260504033803 58 297 2.0 4.0 0.00 0.00 0.00 70 1015.2
20260504033704 58 303 2.0 4.0 0.00 0.00 0.00 70 1015.2
20260504033603 58 306 2.0 4.0 0.00 0.00 0.00 70 1015.2
20260504033505 58 312 2.0 4.0 0.00 0.00 0.00 70 1015.2
20260504033403 58 317 2.0 4.0 0.00 0.00 0.00 70 1015.1
20260504033214 58 323 2.0 4.0 0.00 0.00 0.00 70 1015.1
20260504032903 58 329 2.0 4.0 0.00 0.00 0.00 70 1015.2
20260504032703 58 335 2.0 4.0 0.00 0.00 0.00 70 1015.2
20260504032603 58 337 2.0 4.0 0.00 0.00 0.00 70 1015.3
20260504032505 58 339 2.0 4.0 0.00 0.00 0.00 69 1015.2
20260504032304 58 342 2.0 4.0 0.00 0.00 0.00 68 1015.1
20260504032103 58 343 2.0 4.0 0.00 0.00 0.00 68 1015.2
20260504032004 58 344 1.0 4.0 0.00 0.00 0.00 68 1015.2
20260504031904 58 344 1.0 4.0 0.00 0.00 0.00 68 1015.1
20260504031803 58 343 1.0 5.0 0.00 0.00 0.00 68 1015.2
20260504031703 58 333 1.0 5.0 0.00 0.00 0.00 68 1015.2
20260504031604 58 325 1.0 5.0 0.00 0.00 0.00 68 1015.2
20260504031403 58 317 2.0 5.0 0.00 0.00 0.00 69 1015.2
20260504031304 58 317 2.0 5.0 0.00 0.00 0.00 69 1015.2
20260504031214 58 318 2.0 5.0 0.00 0.00 0.00 69 1015.2
20260504031104 58 318 3.0 5.0 0.00 0.00 0.00 69 1015.2
20260504031003 58 318 3.0 5.0 0.00 0.00 0.00 69 1015.2
20260504030903 58 318 3.0 5.0 0.00 0.00 0.00 69 1015.1
20260504030804 58 317 3.0 5.0 0.00 0.00 0.00 69 1015.2
20260504030704 58 318 3.0 5.0 0.00 0.00 0.00 69 1015.2
20260504030604 58 320 2.0 5.0 0.00 0.00 0.00 69 1015.2
20260504030403 58 323 2.0 5.0 0.00 0.00 0.00 69 1015.2
20260504030303 58 322 2.0 5.0 0.00 0.00 0.00 68 1015.2
20260504030213 58 319 2.0 5.0 0.00 0.00 0.00 68 1015.1
20260504025904 58 309 1.0 3.0 0.00 0.00 0.00 68 1015.3
20260504025803 58 306 1.0 3.0 0.00 0.00 0.00 68 1015.2
20260504025704 58 302 1.0 3.0 0.00 0.00 0.00 68 1015.3
20260504025604 58 304 1.0 3.0 0.00 0.00 0.00 68 1015.3
20260504025505 58 315 1.0 3.0 0.00 0.00 0.00 68 1015.3
20260504025404 58 327 1.0 4.0 0.00 0.00 0.00 68 1015.2
20260504025304 58 328 1.0 4.0 0.00 0.00 0.00 68 1015.2
20260504025214 58 329 1.0 4.0 0.00 0.00 0.00 68 1015.3
20260504025104 58 327 2.0 4.0 0.00 0.00 0.00 68 1015.2
20260504024904 58 331 2.0 4.0 0.00 0.00 0.00 68 1015.2
20260504024803 58 330 2.0 4.0 0.00 0.00 0.00 68 1015.2
20260504024505 58 321 2.0 4.0 0.00 0.00 0.00 68 1015.1
20260504024404 58 317 2.0 4.0 0.00 0.00 0.00 68 1015.2
20260504024303 58 317 2.0 4.0 0.00 0.00 0.00 68 1015.2
20260504024213 58 314 2.0 4.0 0.00 0.00 0.00 68 1015.2
20260504024004 59 298 1.0 3.0 0.00 0.00 0.00 68 1015.3
20260504023904 59 297 2.0 3.0 0.00 0.00 0.00 68 1015.3
20260504023804 59 295 2.0 3.0 0.00 0.00 0.00 68 1015.3
20260504023703 59 292 2.0 3.0 0.00 0.00 0.00 68 1015.3
20260504023604 59 283 1.0 3.0 0.00 0.00 0.00 68 1015.3
20260504023505 59 281 1.0 3.0 0.00 0.00 0.00 68 1015.3
20260504023404 59 286 1.0 3.0 0.00 0.00 0.00 68 1015.1
20260504023303 59 291 2.0 3.0 0.00 0.00 0.00 68 1015.3
20260504023103 59 308 2.0 4.0 0.00 0.00 0.00 68 1015.2
20260504023004 59 317 2.0 4.0 0.00 0.00 0.00 68 1015.2
20260504022904 59 320 2.0 4.0 0.00 0.00 0.00 68 1015.3
20260504022804 59 326 2.0 4.0 0.00 0.00 0.00 68 1015.2
20260504022703 59 332 2.0 4.0 0.00 0.00 0.00 67 1015.3
20260504022603 59 336 2.0 4.0 0.00 0.00 0.00 67 1015.3
20260504022403 59 336 2.0 4.0 0.00 0.00 0.00 67 1015.3
20260504022212 59 337 2.0 4.0 0.00 0.00 0.00 66 1015.3
20260504022004 59 335 1.0 3.0 0.00 0.00 0.00 66 1015.3
20260504021904 59 334 1.0 3.0 0.00 0.00 0.00 66 1015.3
20260504021805 59 327 1.0 3.0 0.00 0.00 0.00 66 1015.3
20260504021703 59 318 1.0 3.0 0.00 0.00 0.00 67 1015.3
20260504021604 59 314 1.0 2.0 0.00 0.00 0.00 66 1015.2
20260504021505 59 307 1.0 2.0 0.00 0.00 0.00 67 1015.2
20260504021404 59 298 1.0 2.0 0.00 0.00 0.00 67 1015.1
20260504021304 59 290 1.0 2.0 0.00 0.00 0.00 67 1015.2
20260504021213 59 279 1.0 2.0 0.00 0.00 0.00 67 1015.3
20260504021104 59 271 1.0 2.0 0.00 0.00 0.00 67 1015.1
20260504021004 59 261 1.0 2.0 0.00 0.00 0.00 67 1015.3
20260504020903 59 249 1.0 2.0 0.00 0.00 0.00 67 1015.2
20260504020703 59 226 1.0 3.0 0.00 0.00 0.00 68 1015.1
20260504020604 59 220 1.0 3.0 0.00 0.00 0.00 68 1015.1
20260504020504 59 215 1.0 4.0 0.00 0.00 0.00 68 1015.1
20260504020403 59 210 2.0 4.0 0.00 0.00 0.00 68 1015.2
20260504020212 58 211 2.0 4.0 0.00 0.00 0.00 68 1015.1
20260504020004 58 218 2.0 4.0 0.00 0.00 0.00 68 1015.3
20260504015903 58 223 2.0 4.0 0.00 0.00 0.00 68 1015.3
20260504015804 58 230 2.0 4.0 0.00 0.00 0.00 68 1015.2
20260504015603 58 252 2.0 4.0 0.00 0.00 0.00 67 1015.2
20260504015504 59 268 2.0 4.0 0.00 0.00 0.00 67 1015.2
20260504015404 59 278 2.0 4.0 0.00 0.00 0.00 67 1015.3
20260504015304 59 286 2.0 4.0 0.00 0.00 0.00 67 1015.2
20260504015213 59 290 2.0 4.0 0.00 0.00 0.00 67 1015.3
20260504015103 59 295 2.0 4.0 0.00 0.00 0.00 67 1015.3
20260504015003 59 300 1.0 4.0 0.00 0.00 0.00 67 1015.2
20260504014703 59 301 1.0 4.0 0.00 0.00 0.00 67 1015.2
20260504014505 59 302 1.0 3.0 0.00 0.00 0.00 67 1015.2
20260504014404 59 313 1.0 3.0 0.00 0.00 0.00 67 1015.2
20260504014303 59 323 1.0 3.0 0.00 0.00 0.00 67 1015.2
20260504014213 59 331 1.0 3.0 0.00 0.00 0.00 67 1015.2
20260504014103 59 336 1.0 3.0 0.00 0.00 0.00 67 1015.2
20260504014004 59 339 1.0 3.0 0.00 0.00 0.00 67 1015.4
20260504013903 59 346 2.0 4.0 0.00 0.00 0.00 67 1015.3
20260504013804 59 347 2.0 4.0 0.00 0.00 0.00 67 1015.3
20260504013703 59 351 2.0 4.0 0.00 0.00 0.00 67 1015.4
20260504013603 59 349 2.0 4.0 0.00 0.00 0.00 67 1015.3
20260504013505 59 347 2.0 4.0 0.00 0.00 0.00 67 1015.3
20260504013404 59 344 2.0 4.0 0.00 0.00 0.00 66 1015.3
20260504013305 59 342 2.0 4.0 0.00 0.00 0.00 66 1015.2
20260504013212 59 336 2.0 4.0 0.00 0.00 0.00 67 1015.3
20260504013104 59 330 1.0 4.0 0.00 0.00 0.00 66 1015.4
20260504013003 59 322 1.0 4.0 0.00 0.00 0.00 66 1015.4
20260504012903 59 307 1.0 3.0 0.00 0.00 0.00 66 1015.4
20260504012704 59 281 1.0 3.0 0.00 0.00 0.00 67 1015.4
20260504012604 59 271 1.0 3.0 0.00 0.00 0.00 66 1015.5
20260504012504 59 266 1.0 3.0 0.00 0.00 0.00 66 1015.5
20260504012404 59 261 1.0 4.0 0.00 0.00 0.00 66 1015.4
20260504012304 59 261 1.0 4.0 0.00 0.00 0.00 66 1015.4
20260504012212 59 259 2.0 4.0 0.00 0.00 0.00 66 1015.3
20260504012103 59 258 2.0 4.0 0.00 0.00 0.00 66 1015.3
20260504012004 59 256 2.0 4.0 0.00 0.00 0.00 66 1015.3
20260504011903 59 254 2.0 4.0 0.00 0.00 0.00 66 1015.4
20260504011804 59 254 2.0 4.0 0.00 0.00 0.00 66 1015.3
20260504011703 59 255 2.0 4.0 0.00 0.00 0.00 66 1015.3
20260504011603 59 257 2.0 4.0 0.00 0.00 0.00 67 1015.3
20260504011504 59 257 2.0 4.0 0.00 0.00 0.00 67 1015.3
20260504011211 59 260 1.0 3.0 0.00 0.00 0.00 67 1015.3
20260504011103 59 261 1.0 3.0 0.00 0.00 0.00 66 1015.3
20260504011003 59 266 1.0 3.0 0.00 0.00 0.00 66 1015.3
20260504010804 59 269 1.0 3.0 0.00 0.00 0.00 66 1015.3
20260504010704 59 269 1.0 3.0 0.00 0.00 0.00 66 1015.3
20260504010504 59 270 1.0 3.0 0.00 0.00 0.00 67 1015.4
20260504010404 59 272 1.0 3.0 0.00 0.00 0.00 67 1015.3
20260504010303 59 277 1.0 3.0 0.00 0.00 0.00 67 1015.2
20260504010212 59 287 2.0 4.0 0.00 0.00 0.00 67 1015.3
20260504010004 59 305 2.0 4.0 0.00 0.00 0.00 67 1015.4
20260504005904 59 313 2.0 5.0 0.00 0.00 0.00 66 1015.4
20260504005804 59 321 2.0 5.0 0.00 0.00 0.00 67 1015.4
20260504005704 59 324 2.0 5.0 0.00 0.00 0.00 67 1015.4
20260504005511 59 325 3.0 5.0 0.00 0.00 0.00 67 1015.3
20260504005403 59 324 3.0 5.0 0.00 0.00 0.00 66 1015.3
20260504005304 59 322 2.0 5.0 0.00 0.00 0.00 66 1015.4
20260504005104 59 319 2.0 5.0 0.00 0.00 0.00 66 1015.4
20260504005004 59 312 2.0 5.0 0.00 0.00 0.00 66 1015.4
20260504004913 59 305 2.0 4.0 0.00 0.00 0.00 66 1015.4
20260504004804 59 298 1.0 4.0 0.00 0.00 0.00 67 1015.4
20260504004704 59 286 1.0 4.0 0.00 0.00 0.00 66 1015.4
20260504004503 60 253 1.0 2.0 0.00 0.00 0.00 66 1015.4
20260504004304 60 244 1.0 2.0 0.00 0.00 0.00 66 1015.4
20260504004204 60 244 1.0 2.0 0.00 0.00 0.00 66 1015.5
20260504004104 59 244 1.0 3.0 0.00 0.00 0.00 66 1015.5
20260504004003 60 243 1.0 3.0 0.00 0.00 0.00 66 1015.5
20260504003913 60 243 1.0 3.0 0.00 0.00 0.00 66 1015.4
20260504003803 60 243 1.0 3.0 0.00 0.00 0.00 66 1015.5
20260504003704 60 241 1.0 3.0 0.00 0.00 0.00 66 1015.4
20260504003503 60 236 1.0 3.0 0.00 0.00 0.00 66 1015.5
20260504003404 60 234 1.0 3.0 0.00 0.00 0.00 65 1015.5
20260504003303 60 232 1.0 3.0 0.00 0.00 0.00 65 1015.6
20260504003205 60 228 1.0 3.0 0.00 0.00 0.00 65 1015.6
20260504003103 60 225 1.0 2.0 0.00 0.00 0.00 65 1015.5
20260504003005 60 230 1.0 3.0 0.00 0.00 0.00 65 1015.6
20260504002913 60 234 1.0 3.0 0.00 0.00 0.00 65 1015.6
20260504002803 60 237 1.0 3.0 0.00 0.00 0.00 65 1015.6
20260504002704 60 240 1.0 3.0 0.00 0.00 0.00 65 1015.7
20260504002604 60 247 1.0 3.0 0.00 0.00 0.00 65 1015.6
20260504002505 60 250 1.0 3.0 0.00 0.00 0.00 65 1015.7
20260504002304 60 260 1.0 3.0 0.00 0.00 0.00 65 1015.7
20260504002203 60 264 1.0 3.0 0.00 0.00 0.00 65 1015.7
20260504002103 60 270 1.0 3.0 0.00 0.00 0.00 65 1015.7
20260504002004 60 271 1.0 3.0 0.00 0.00 0.00 65 1015.6
20260504001905 60 271 1.0 3.0 0.00 0.00 0.00 65 1015.6
20260504001803 60 272 1.0 3.0 0.00 0.00 0.00 64 1015.6
20260504001703 61 272 1.0 3.0 0.00 0.00 0.00 64 1015.7
20260504001613 61 271 1.0 3.0 0.00 0.00 0.00 64 1015.6
20260504001504 61 269 1.0 3.0 0.00 0.00 0.00 64 1015.7
20260504001404 61 265 1.0 2.0 0.00 0.00 0.00 64 1015.7
20260504001204 61 261 1.0 2.0 0.00 0.00 0.00 64 1015.6
20260504001104 61 261 1.0 2.0 0.00 0.00 0.00 64 1015.6
20260504001004 60 261 0.0 2.0 0.00 0.00 0.00 64 1015.7
20260504000904 60 262 0.0 2.0 0.00 0.00 0.00 64 1015.7
20260504000803 60 262 0.0 2.0 0.00 0.00 0.00 64 1015.6
20260504000704 60 261 0.0 2.0 0.00 0.00 0.00 64 1015.7
20260504000612 60 261 0.0 2.0 0.00 0.00 0.00 64 1015.7
20260504000504 60 261 1.0 2.0 0.00 0.00 0.00 63 1015.7
20260504000403 61 261 1.0 2.0 0.00 0.00 0.00 63 1015.7
20260504000303 61 261 1.0 2.0 0.00 0.00 0.00 63 1015.7
20260504000204 61 261 1.0 2.0 0.00 0.00 0.00 63 1015.7
20260504000103 61 261 1.0 2.0 0.00 0.00 0.00 63 1015.7
20260504000004 61 262 1.0 2.0 0.00 0.00 0.00 63 1015.6
20260503235904 61 262 1.0 2.0 0.00 0.00 0.00 63 1015.8
20260503235804 61 262 1.0 2.0 0.00 0.00 0.00 63 1015.7
20260503235703 61 261 1.0 2.0 0.00 0.00 0.00 63 1015.7
20260503235610 61 261 1.0 2.0 0.00 0.00 0.00 63 1015.7
20260503235504 61 261 1.0 2.0 0.00 0.00 0.00 63 1015.7
20260503235403 61 261 1.0 2.0 0.00 0.00 0.00 63 1015.7
20260503235314 61 261 1.0 2.0 0.00 0.00 0.00 63 1015.7
20260503235203 61 261 1.0 2.0 0.00 0.00 0.00 62 1015.7
20260503235104 61 261 1.0 2.0 0.00 0.00 0.00 62 1015.8
20260503235004 61 261 1.0 2.0 0.00 0.00 0.00 62 1015.8
20260503234903 61 261 0.0 2.0 0.00 0.00 0.00 61 1015.8
20260503234804 61 261 1.0 2.0 0.00 0.00 0.00 62 1015.7
20260503234704 61 262 1.0 3.0 0.00 0.00 0.00 62 1015.8
20260503234604 61 262 1.0 3.0 0.00 0.00 0.00 62 1015.8
20260503234404 61 260 1.0 3.0 0.00 0.00 0.00 62 1015.8
20260503234306 61 255 1.0 3.0 0.00 0.00 0.00 62 1015.8
20260503234204 61 251 1.0 3.0 0.00 0.00 0.00 62 1015.8
20260503234104 61 244 1.0 4.0 0.00 0.00 0.00 62 1015.8
20260503234015 61 242 1.0 4.0 0.00 0.00 0.00 63 1015.7
20260503233904 61 243 1.0 4.0 0.00 0.00 0.00 63 1015.8
20260503233803 61 241 1.0 4.0 0.00 0.00 0.00 63 1015.8
20260503233703 61 239 1.0 4.0 0.00 0.00 0.00 63 1015.8
20260503233403 61 237 2.0 4.0 0.00 0.00 0.00 62 1015.9
20260503233306 61 237 1.0 4.0 0.00 0.00 0.00 62 1015.9
20260503233204 61 238 1.0 4.0 0.00 0.00 0.00 62 1015.8
20260503233014 61 242 1.0 3.0 0.00 0.00 0.00 61 1015.8
20260503232903 61 238 1.0 3.0 0.00 0.00 0.00 61 1015.8
20260503232803 61 233 1.0 3.0 0.00 0.00 0.00 61 1015.8
20260503232704 62 226 1.0 3.0 0.00 0.00 0.00 61 1015.8
20260503232603 62 217 1.0 3.0 0.00 0.00 0.00 61 1015.8
20260503232404 61 210 1.0 3.0 0.00 0.00 0.00 61 1015.8
20260503232305 61 209 1.0 3.0 0.00 0.00 0.00 61 1015.8
20260503232204 61 208 2.0 4.0 0.00 0.00 0.00 61 1015.8
20260503232104 61 208 2.0 4.0 0.00 0.00 0.00 61 1015.8
20260503232013 61 208 2.0 4.0 0.00 0.00 0.00 61 1015.7
20260503231903 61 208 2.0 4.0 0.00 0.00 0.00 60 1015.8
20260503231804 61 209 2.0 4.0 0.00 0.00 0.00 61 1015.8
20260503231703 61 211 2.0 4.0 0.00 0.00 0.00 60 1015.8
20260503231504 61 214 2.0 4.0 0.00 0.00 0.00 61 1015.8
20260503231404 61 218 2.0 4.0 0.00 0.00 0.00 61 1015.7
20260503231304 61 223 2.0 4.0 0.00 0.00 0.00 61 1015.8
20260503231203 61 230 2.0 3.0 0.00 0.00 0.00 61 1015.9
20260503231103 61 233 1.0 3.0 0.00 0.00 0.00 61 1015.9
20260503230904 61 241 1.0 3.0 0.00 0.00 0.00 62 1015.8
20260503230714 61 248 1.0 3.0 0.00 0.00 0.00 61 1015.9
20260503230603 62 252 1.0 3.0 0.00 0.00 0.00 61 1015.9
20260503230503 62 253 1.0 2.0 0.00 0.00 0.00 60 1016.0
20260503230404 62 252 1.0 2.0 0.00 0.00 0.00 60 1015.9
20260503230304 62 251 1.0 2.0 0.00 0.00 0.00 60 1016.0
20260503230204 62 250 1.0 2.0 0.00 0.00 0.00 61 1016.0
20260503230006 62 248 1.0 4.0 0.00 0.00 0.00 61 1015.9
20260503225904 62 248 1.0 4.0 0.00 0.00 0.00 61 1016.0
20260503225803 62 246 1.0 4.0 0.00 0.00 0.00 61 1015.9
20260503225713 62 246 2.0 4.0 0.00 0.00 0.00 61 1015.9
20260503225603 62 246 2.0 4.0 0.00 0.00 0.00 61 1015.9
20260503225404 61 244 2.0 4.0 0.00 0.00 0.00 60 1016.0
20260503225304 61 245 2.0 4.0 0.00 0.00 0.00 60 1016.0
20260503225203 61 245 2.0 4.0 0.00 0.00 0.00 60 1016.0
20260503225104 61 245 2.0 4.0 0.00 0.00 0.00 60 1015.9
20260503225004 61 244 2.0 4.0 0.00 0.00 0.00 60 1015.9
20260503224804 61 239 2.0 5.0 0.00 0.00 0.00 60 1015.9
20260503224713 61 239 2.0 5.0 0.00 0.00 0.00 60 1016.0
20260503224604 61 237 2.0 5.0 0.00 0.00 0.00 60 1015.9
20260503224504 62 239 2.0 5.0 0.00 0.00 0.00 60 1016.0
20260503224403 61 237 2.0 5.0 0.00 0.00 0.00 60 1015.9
20260503224204 61 239 2.0 5.0 0.00 0.00 0.00 60 1016.0
20260503224104 62 239 2.0 5.0 0.00 0.00 0.00 60 1015.9
20260503223903 62 242 2.0 4.0 0.00 0.00 0.00 60 1015.9
20260503223803 61 240 2.0 4.0 0.00 0.00 0.00 60 1015.9
20260503223603 61 233 2.0 5.0 0.00 0.00 0.00 61 1015.8
20260503223504 61 230 2.0 5.0 0.00 0.00 0.00 61 1015.9
20260503223413 61 228 3.0 5.0 0.00 0.00 0.00 61 1015.8
20260503223303 61 225 3.0 5.0 0.00 0.00 0.00 61 1015.9
20260503223203 61 222 3.0 5.0 0.00 0.00 0.00 60 1015.8
20260503223104 61 220 3.0 5.0 0.00 0.00 0.00 60 1015.9
20260503223004 61 218 3.0 5.0 0.00 0.00 0.00 60 1015.8
20260503222904 61 217 4.0 5.0 0.00 0.00 0.00 60 1015.9
20260503222804 61 217 3.0 5.0 0.00 0.00 0.00 60 1015.9
20260503222703 61 217 4.0 5.0 0.00 0.00 0.00 60 1015.8
20260503222603 61 217 4.0 5.0 0.00 0.00 0.00 61 1015.8
20260503222504 61 217 4.0 5.0 0.00 0.00 0.00 61 1015.8
20260503222407 61 218 4.0 5.0 0.00 0.00 0.00 60 1015.8
20260503222305 61 218 4.0 5.0 0.00 0.00 0.00 60 1015.9
20260503222203 61 219 3.0 5.0 0.00 0.00 0.00 61 1015.9
20260503222114 61 219 3.0 5.0 0.00 0.00 0.00 61 1015.8
20260503222004 61 220 3.0 5.0 0.00 0.00 0.00 61 1015.8
20260503221803 61 221 3.0 5.0 0.00 0.00 0.00 60 1015.8
20260503221704 61 223 3.0 5.0 0.00 0.00 0.00 61 1015.9
20260503221604 61 223 3.0 5.0 0.00 0.00 0.00 61 1015.8
20260503221504 61 224 3.0 4.0 0.00 0.00 0.00 61 1015.9
20260503221404 61 224 3.0 4.0 0.00 0.00 0.00 60 1015.9
20260503221303 61 224 3.0 4.0 0.00 0.00 0.00 61 1015.9
20260503221113 61 225 2.0 4.0 0.00 0.00 0.00 60 1015.9
20260503221004 61 224 2.0 4.0 0.00 0.00 0.00 61 1015.9
20260503220904 61 223 2.0 4.0 0.00 0.00 0.00 61 1015.7
20260503220804 61 222 2.0 4.0 0.00 0.00 0.00 61 1015.9
20260503220704 61 220 2.0 4.0 0.00 0.00 0.00 61 1015.9
20260503220604 61 220 2.0 4.0 0.00 0.00 0.00 60 1015.9
20260503220504 61 219 2.0 4.0 0.00 0.00 0.00 60 1015.9
20260503220403 61 219 2.0 4.0 0.00 0.00 0.00 60 1015.9
20260503220304 61 219 2.0 4.0 0.00 0.00 0.00 60 1015.9
20260503220203 62 222 1.0 4.0 0.00 0.00 0.00 60 1015.8
20260503220105 62 222 1.0 3.0 0.00 0.00 0.00 60 1015.8
20260503220006 62 225 1.0 3.0 0.00 0.00 0.00 60 1015.8
20260503215806 62 234 1.0 3.0 0.00 0.00 0.00 59 1015.8
20260503215704 62 243 0.0 3.0 0.00 0.00 0.00 60 1015.8
20260503215514 62 279 0.0 2.0 0.00 0.00 0.00 60 1015.7
20260503215403 62 283 0.0 2.0 0.00 0.00 0.00 60 1015.7
20260503215304 62 283 0.0 2.0 0.00 0.00 0.00 59 1015.6
20260503215204 62 283 0.0 1.0 0.00 0.00 0.00 59 1015.7
20260503215104 63 283 0.0 1.0 0.00 0.00 0.00 59 1015.7
20260503215003 63 283 0.0 1.0 0.00 0.00 0.00 59 1015.7
20260503214904 63 283 0.0 1.0 0.00 0.00 0.00 59 1015.7
20260503214804 63 283 0.0 1.0 0.00 0.00 0.00 59 1015.8
20260503214604 63 277 0.0 3.0 0.00 0.00 0.00 59 1015.7
20260503214513 63 277 1.0 3.0 0.00 0.00 0.00 59 1015.7
20260503214404 63 273 1.0 3.0 0.00 0.00 0.00 59 1015.6
20260503214304 63 268 1.0 3.0 0.00 0.00 0.00 58 1015.7
20260503214204 63 267 1.0 3.0 0.00 0.00 0.00 59 1015.7
20260503214103 63 267 1.0 3.0 0.00 0.00 0.00 59 1015.7
20260503213903 62 266 1.0 3.0 0.00 0.00 0.00 59 1015.6
20260503213804 62 264 1.0 3.0 0.00 0.00 0.00 59 1015.7
20260503213704 62 262 2.0 3.0 0.00 0.00 0.00 59 1015.6
20260503213603 62 261 2.0 3.0 0.00 0.00 0.00 60 1015.7
20260503213506 62 261 2.0 3.0 0.00 0.00 0.00 60 1015.7
20260503213304 62 265 1.0 3.0 0.00 0.00 0.00 60 1015.7
20260503213214 62 265 1.0 3.0 0.00 0.00 0.00 60 1015.7
20260503213004 62 267 1.0 3.0 0.00 0.00 0.00 61 1015.5
20260503212903 62 275 1.0 3.0 0.00 0.00 0.00 61 1015.7
20260503212804 62 301 1.0 3.0 0.00 0.00 0.00 61 1015.7
20260503212703 62 328 1.0 3.0 0.00 0.00 0.00 61 1015.6
20260503212505 62 338 1.0 3.0 0.00 0.00 0.00 61 1015.6
20260503212403 62 335 1.0 3.0 0.00 0.00 0.00 61 1015.7
20260503212305 62 333 2.0 3.0 0.00 0.00 0.00 61 1015.6
20260503212212 62 332 2.0 3.0 0.00 0.00 0.00 61 1015.6
20260503212103 62 331 2.0 3.0 0.00 0.00 0.00 61 1015.6
20260503212003 62 331 2.0 3.0 0.00 0.00 0.00 61 1015.6
20260503211903 62 330 2.0 3.0 0.00 0.00 0.00 61 1015.6
20260503211804 62 328 2.0 4.0 0.00 0.00 0.00 61 1015.6
20260503211704 62 324 2.0 4.0 0.00 0.00 0.00 61 1015.6
20260503211603 62 319 2.0 4.0 0.00 0.00 0.00 60 1015.6
20260503211403 62 288 3.0 7.0 0.00 0.00 0.00 59 1015.5
20260503211205 63 257 3.0 7.0 0.00 0.00 0.00 59 1015.4
20260503211103 63 248 3.0 7.0 0.00 0.00 0.00 59 1015.4
20260503211004 63 240 4.0 7.0 0.00 0.00 0.00 59 1015.3
20260503210913 63 233 4.0 7.0 0.00 0.00 0.00 59 1015.4
20260503210804 63 227 4.0 7.0 0.00 0.00 0.00 59 1015.4
20260503210704 62 223 4.0 7.0 0.00 0.00 0.00 59 1015.3
20260503210604 62 221 5.0 7.0 0.00 0.00 0.00 58 1015.3
20260503210503 62 219 5.0 8.0 0.00 0.00 0.00 58 1015.3
20260503210403 62 216 5.0 8.0 0.00 0.00 0.00 58 1015.4
20260503210303 62 215 5.0 9.0 0.00 0.00 0.00 59 1015.4
20260503210204 62 214 5.0 9.0 0.00 0.00 0.00 59 1015.3
20260503210005 62 212 5.0 9.0 0.00 0.00 0.00 58 1015.4
20260503205803 62 211 5.0 9.0 0.00 0.00 0.00 59 1015.4
20260503205704 62 212 5.0 9.0 0.00 0.00 0.00 59 1015.4
20260503205615 62 212 5.0 9.0 0.00 0.00 0.00 59 1015.3
20260503205404 62 210 5.0 9.0 0.00 0.00 0.00 58 1015.3
20260503205304 62 210 5.0 8.0 0.00 0.00 0.00 58 1015.3
20260503205103 62 210 5.0 8.0 0.00 0.00 0.00 58 1015.4
20260503205004 62 209 5.0 8.0 0.00 0.00 0.00 58 1015.4
20260503204904 62 209 5.0 8.0 0.00 0.00 0.00 58 1015.3
20260503204804 62 208 5.0 8.0 0.00 0.00 0.00 58 1015.3
20260503204704 62 208 5.0 8.0 0.00 0.00 0.00 58 1015.3
20260503204607 62 207 5.0 8.0 0.00 0.00 0.00 58 1015.3
20260503204505 62 207 4.0 8.0 0.00 0.00 0.00 58 1015.2
20260503204403 62 207 4.0 8.0 0.00 0.00 0.00 58 1015.3
20260503204315 62 208 4.0 8.0 0.00 0.00 0.00 58 1015.3
20260503204204 62 207 4.0 7.0 0.00 0.00 0.00 58 1015.2
20260503204103 62 206 4.0 7.0 0.00 0.00 0.00 58 1015.2
20260503204004 63 207 4.0 7.0 0.00 0.00 0.00 58 1015.2
20260503203904 63 207 4.0 7.0 0.00 0.00 0.00 58 1015.3
20260503203704 63 206 4.0 7.0 0.00 0.00 0.00 58 1015.2
20260503203605 63 206 5.0 7.0 0.00 0.00 0.00 58 1015.2
20260503203203 63 207 4.0 7.0 0.00 0.00 0.00 58 1015.2
20260503203103 63 207 4.0 7.0 0.00 0.00 0.00 57 1015.2
20260503203004 63 207 4.0 7.0 0.00 0.00 0.00 58 1015.3
20260503202903 63 209 4.0 7.0 0.00 0.00 0.00 58 1015.2
20260503202803 63 210 3.0 7.0 0.00 0.00 0.00 57 1015.3
20260503202703 63 210 3.0 7.0 0.00 0.00 0.00 57 1015.3
20260503202603 63 210 2.0 6.0 0.00 0.00 0.00 58 1015.3
20260503202504 63 213 2.0 6.0 0.00 0.00 0.00 58 1015.4
20260503202404 63 219 2.0 6.0 0.00 0.00 0.00 58 1015.2
20260503202204 63 218 2.0 5.0 0.00 0.00 0.00 58 1015.3
20260503202104 63 217 2.0 4.0 0.00 0.00 0.00 57 1015.3
20260503202014 63 218 2.0 4.0 0.00 0.00 0.00 58 1015.3
20260503201804 63 215 3.0 6.0 0.00 0.00 0.00 58 1015.3
20260503201713 63 213 3.0 6.0 0.00 0.00 0.00 58 1015.3
20260503201605 63 211 3.0 7.0 0.00 0.00 0.00 58 1015.3
20260503201506 63 208 3.0 7.0 0.00 0.00 0.00 57 1015.3
20260503201403 63 206 4.0 7.0 0.00 0.00 0.00 57 1015.3
20260503201203 63 205 4.0 7.0 0.00 0.00 0.00 57 1015.4
20260503201105 63 204 4.0 7.0 0.00 0.00 0.00 57 1015.4
20260503201004 63 203 4.0 7.0 0.00 0.00 0.00 57 1015.4
20260503200904 63 204 5.0 7.0 0.00 0.00 0.00 57 1015.3
20260503200708 63 206 5.0 7.0 0.00 0.00 0.00 57 1015.4
20260503200604 63 208 5.0 7.0 0.00 0.00 0.00 57 1015.2
20260503200504 63 208 5.0 7.0 0.00 0.00 0.00 57 1015.2
20260503200414 63 209 5.0 7.0 0.00 0.00 0.00 57 1015.4
20260503200304 63 211 5.0 7.0 0.00 0.00 0.00 57 1015.4
20260503200104 63 216 5.0 7.0 0.00 0.00 0.00 57 1015.3
20260503200004 63 218 4.0 6.0 0.00 0.00 0.00 57 1015.3
20260503195804 63 219 4.0 6.0 0.00 0.00 0.00 57 1015.3
20260503195705 63 220 4.0 6.0 0.00 0.00 0.00 57 1015.4
20260503195503 63 222 4.0 6.0 0.00 0.00 0.00 57 1015.3
20260503195404 63 223 4.0 6.0 0.00 0.00 0.00 56 1015.2
20260503195305 63 223 4.0 6.0 0.00 0.00 0.00 57 1015.3
20260503195203 63 224 4.0 6.0 0.00 0.00 0.00 56 1015.3
20260503195106 63 223 4.0 6.0 0.00 0.00 0.00 56 1015.2
20260503195005 64 222 4.0 6.0 0.00 0.00 0.00 56 1015.2
20260503194903 64 221 4.0 7.0 0.00 0.00 0.00 56 1015.1
20260503194814 64 221 4.0 7.0 0.00 0.00 0.00 57 1015.1
20260503194704 64 220 4.0 7.0 0.00 0.00 0.00 56 1015.2
20260503194604 64 219 5.0 7.0 0.00 0.00 0.00 56 1015.0
20260503194504 64 219 5.0 7.0 0.00 0.00 0.00 56 1015.1
20260503194403 64 218 5.0 7.0 0.00 0.00 0.00 56 1015.0
20260503194303 64 218 5.0 7.0 0.00 0.00 0.00 56 1015.1
20260503194203 64 216 5.0 7.0 0.00 0.00 0.00 56 1015.1
20260503194006 64 217 5.0 7.0 0.00 0.00 0.00 56 1015.1
20260503193904 64 216 5.0 7.0 0.00 0.00 0.00 56 1015.0
20260503193704 64 213 5.0 7.0 0.00 0.00 0.00 56 1015.0
20260503193604 64 212 5.0 7.0 0.00 0.00 0.00 56 1015.0
20260503193404 64 209 5.0 7.0 0.00 0.00 0.00 55 1015.0
20260503193304 64 207 5.0 7.0 0.00 0.00 0.00 56 1014.9
20260503193205 64 207 5.0 7.0 0.00 0.00 0.00 56 1014.9
20260503193104 64 206 5.0 7.0 0.00 0.00 0.00 56 1015.0
20260503193004 64 206 5.0 7.0 0.00 0.00 0.00 56 1014.9
20260503192903 64 205 5.0 7.0 0.00 0.00 0.00 56 1015.0
20260503192805 64 206 5.0 7.0 0.00 0.00 0.00 56 1015.0
20260503192704 64 207 5.0 7.0 0.00 0.00 0.00 56 1014.9
20260503192603 64 207 5.0 7.0 0.00 0.00 0.00 57 1014.9
20260503192506 64 208 5.0 7.0 0.00 0.00 0.00 57 1014.9
20260503192404 64 209 5.0 8.0 0.00 0.00 0.00 57 1015.0
20260503192305 64 210 5.0 8.0 0.00 0.00 0.00 57 1014.9
20260503192214 64 211 5.0 8.0 0.00 0.00 0.00 57 1014.9
20260503192104 64 212 5.0 8.0 0.00 0.00 0.00 57 1014.9
20260503192005 64 213 5.0 8.0 0.00 0.00 0.00 57 1014.9
20260503191904 64 216 5.0 8.0 0.00 0.00 0.00 57 1014.8
20260503191804 65 218 5.0 8.0 0.00 0.00 0.00 57 1014.8
20260503191605 65 223 5.0 8.0 0.00 0.00 0.00 57 1014.9
20260503191504 65 225 5.0 8.0 0.00 0.00 0.00 57 1014.8
20260503191404 65 227 5.0 8.0 0.00 0.00 0.00 57 1014.9
20260503191304 65 229 5.0 8.0 0.00 0.00 0.00 57 1014.8
20260503191208 65 230 5.0 8.0 0.00 0.00 0.00 57 1014.8
20260503191103 65 234 4.0 8.0 0.00 0.00 0.00 57 1014.8
20260503191004 65 236 4.0 8.0 0.00 0.00 0.00 56 1014.7
20260503190916 65 239 4.0 8.0 0.00 0.00 0.00 56 1014.8
20260503190805 65 240 3.0 8.0 0.00 0.00 0.00 56 1014.7
20260503190705 65 242 3.0 8.0 0.00 0.00 0.00 56 1014.7
20260503190604 65 244 2.0 7.0 0.00 0.00 0.00 56 1014.7
20260503190505 66 248 2.0 7.0 0.00 0.00 0.00 55 1014.6
20260503190404 66 254 2.0 5.0 0.00 0.00 0.00 55 1014.6
20260503190204 66 270 1.0 5.0 0.00 0.00 0.00 55 1014.6
20260503190104 66 275 1.0 4.0 0.00 0.00 0.00 55 1014.6
20260503190004 66 283 1.0 2.0 0.00 0.00 0.00 55 1014.5
20260503185907 66 282 1.0 2.0 0.00 0.00 0.00 55 1014.4
20260503185805 67 272 1.0 2.0 0.00 0.00 0.00 55 1014.5
20260503185704 67 262 1.0 2.0 0.00 0.00 0.00 55 1014.5
20260503185505 67 250 1.0 2.0 0.00 0.00 0.00 54 1014.5
20260503185404 67 246 1.0 2.0 0.00 0.00 0.00 54 1014.5
20260503185305 67 218 1.0 3.0 0.00 0.00 0.00 54 1014.5
20260503185204 67 205 1.0 3.0 0.00 0.00 0.00 53 1014.5
20260503185105 67 192 1.0 3.0 0.00 0.00 0.00 53 1014.5
20260503185004 67 182 1.0 3.0 0.00 0.00 0.00 52 1014.5
20260503184904 67 175 1.0 3.0 0.00 0.00 0.00 52 1014.4
20260503184806 67 166 1.0 3.0 0.00 0.00 0.00 51 1014.4
20260503184704 67 161 1.0 3.0 0.00 0.00 0.00 52 1014.3
20260503184604 67 165 1.0 4.0 0.00 0.00 0.00 52 1014.2
20260503184505 67 170 1.0 4.0 0.00 0.00 0.00 52 1014.3
20260503184404 67 175 2.0 4.0 0.00 0.00 0.00 52 1014.4
20260503184309 67 182 2.0 4.0 0.00 0.00 0.00 52 1014.2
20260503184014 67 192 3.0 6.0 0.00 0.00 0.00 52 1014.3
20260503183905 67 194 3.0 6.0 0.00 0.00 0.00 51 1014.3
20260503183804 67 197 3.0 6.0 0.00 0.00 0.00 52 1014.2
20260503183603 67 200 4.0 6.0 0.00 0.00 0.00 52 1014.3
20260503183504 67 201 4.0 6.0 0.00 0.00 0.00 53 1014.3
20260503183404 67 200 3.0 6.0 0.00 0.00 0.00 53 1014.3
20260503183305 67 201 4.0 6.0 0.00 0.00 0.00 53 1014.3
20260503183204 67 200 4.0 6.0 0.00 0.00 0.00 52 1014.2
20260503183104 67 198 3.0 5.0 0.00 0.00 0.00 52 1014.2
20260503183007 68 196 3.0 6.0 0.00 0.00 0.00 52 1014.2
20260503182804 68 193 4.0 6.0 0.00 0.00 0.00 52 1014.2
20260503182715 68 192 4.0 6.0 0.00 0.00 0.00 51 1014.3
20260503182604 68 190 4.0 6.0 0.00 0.00 0.00 51 1014.2
20260503182505 68 189 4.0 6.0 0.00 0.00 0.00 51 1014.4
20260503182404 68 189 4.0 6.0 0.00 0.00 0.00 51 1014.4
20260503182305 68 187 4.0 6.0 0.00 0.00 0.00 51 1014.3
20260503182203 68 186 4.0 6.0 0.00 0.00 0.00 51 1014.3
20260503182105 68 187 4.0 6.0 0.00 0.00 0.00 51 1014.3
20260503182006 68 188 4.0 6.0 0.00 0.00 0.00 51 1014.3
20260503181707 68 191 4.0 7.0 0.00 0.00 0.00 52 1014.3
20260503181605 68 192 4.0 7.0 0.00 0.00 0.00 52 1014.3
20260503181506 68 193 4.0 7.0 0.00 0.00 0.00 53 1014.3
20260503181415 68 195 4.0 7.0 0.00 0.00 0.00 53 1014.3
20260503181305 68 195 4.0 7.0 0.00 0.00 0.00 52 1014.2
20260503181205 68 196 4.0 7.0 0.00 0.00 0.00 51 1014.2
20260503181105 68 195 4.0 7.0 0.00 0.00 0.00 52 1014.2
20260503180905 69 193 3.0 7.0 0.00 0.00 0.00 51 1014.2
20260503180805 69 190 3.0 6.0 0.00 0.00 0.00 51 1014.3
20260503180704 69 188 3.0 6.0 0.00 0.00 0.00 50 1014.4
20260503180505 69 183 3.0 6.0 0.00 0.00 0.00 50 1014.2
20260503180407 69 181 3.0 6.0 0.00 0.00 0.00 50 1014.4
20260503180305 69 179 3.0 6.0 0.00 0.00 0.00 50 1014.3
20260503180115 69 177 3.0 5.0 0.00 0.00 0.00 50 1014.3
20260503180005 69 177 2.0 5.0 0.00 0.00 0.00 50 1014.2
20260503175805 69 177 2.0 4.0 0.00 0.00 0.00 50 1014.2
20260503175705 69 178 2.0 4.0 0.00 0.00 0.00 50 1014.3
20260503175605 69 179 1.0 4.0 0.00 0.00 0.00 50 1014.3
20260503175505 69 183 1.0 4.0 0.00 0.00 0.00 50 1014.2
20260503175404 69 186 1.0 3.0 0.00 0.00 0.00 50 1014.2
20260503175306 69 192 1.0 3.0 0.00 0.00 0.00 49 1014.2
20260503175205 70 197 1.0 3.0 0.00 0.00 0.00 49 1014.2
20260503175108 70 201 1.0 3.0 0.00 0.00 0.00 49 1014.1
20260503175005 70 205 1.0 3.0 0.00 0.00 0.00 49 1014.2
20260503174906 70 211 1.0 3.0 0.00 0.00 0.00 49 1014.1
20260503174605 70 193 1.0 3.0 0.00 0.00 0.00 49 1014.1
20260503174505 70 188 1.0 3.0 0.00 0.00 0.00 49 1014.1
20260503174405 70 183 1.0 3.0 0.00 0.00 0.00 48 1014.1
20260503174305 70 182 2.0 3.0 0.00 0.00 0.00 49 1014.1
20260503174105 70 181 2.0 3.0 0.00 0.00 0.00 49 1014.2
20260503174005 70 184 2.0 3.0 0.00 0.00 0.00 48 1014.1
20260503173905 70 184 2.0 4.0 0.00 0.00 0.00 48 1014.2
20260503173808 70 186 2.0 4.0 0.00 0.00 0.00 48 1014.1
20260503173704 70 190 2.0 4.0 0.00 0.00 0.00 48 1014.2
20260503173605 70 194 2.0 4.0 0.00 0.00 0.00 48 1014.1
20260503173406 70 205 2.0 5.0 0.00 0.00 0.00 47 1014.1
20260503173305 70 206 2.0 5.0 0.00 0.00 0.00 47 1014.1
20260503173206 70 204 2.0 5.0 0.00 0.00 0.00 47 1014.1
20260503173106 70 203 2.0 5.0 0.00 0.00 0.00 47 1014.1
20260503173006 70 201 2.0 5.0 0.00 0.00 0.00 48 1014.1
20260503172907 70 199 2.0 5.0 0.00 0.00 0.00 47 1014.2
20260503172805 70 196 2.0 5.0 0.00 0.00 0.00 47 1014.1
20260503172705 70 192 2.0 5.0 0.00 0.00 0.00 46 1014.1
20260503172605 70 188 2.0 5.0 0.00 0.00 0.00 46 1014.1
20260503172405 70 155 1.0 4.0 0.00 0.00 0.00 47 1014.1
20260503172106 71 66 0.0 2.0 0.00 0.00 0.00 47 1014.1
20260503172005 71 72 1.0 2.0 0.00 0.00 0.00 46 1014.0
20260503171905 71 80 1.0 2.0 0.00 0.00 0.00 46 1014.1
20260503171805 71 88 1.0 2.0 0.00 0.00 0.00 46 1014.1
20260503171706 71 94 1.0 2.0 0.00 0.00 0.00 45 1014.1
20260503171505 71 100 1.0 2.0 0.00 0.00 0.00 45 1014.1
20260503171406 71 105 1.0 2.0 0.00 0.00 0.00 44 1014.2
20260503171305 71 105 1.0 2.0 0.00 0.00 0.00 44 1014.1
20260503171106 71 111 1.0 2.0 0.00 0.00 0.00 44 1014.2
20260503171006 71 125 1.0 2.0 0.00 0.00 0.00 43 1014.2
20260503170805 71 148 0.0 2.0 0.00 0.00 0.00 43 1014.2
20260503170706 71 152 0.0 3.0 0.00 0.00 0.00 43 1014.2
20260503170506 71 129 1.0 3.0 0.00 0.00 0.00 42 1014.1
20260503170405 71 118 1.0 3.0 0.00 0.00 0.00 42 1014.2
20260503170205 71 107 1.0 4.0 0.00 0.00 0.00 43 1014.1
20260503170105 71 101 1.0 4.0 0.00 0.00 0.00 42 1014.2
20260503151005 71 91 6.0 10.0 0.00 0.00 0.00 44 1014.8
20260503150905 71 90 6.0 10.0 0.00 0.00 0.00 44 1014.7
20260503150804 71 88 6.0 10.0 0.00 0.00 0.00 44 1014.8
20260503150605 71 85 6.0 10.0 0.00 0.00 0.00 44 1014.8
20260503150405 71 83 6.0 10.0 0.00 0.00 0.00 44 1014.8
20260503150305 71 82 6.0 10.0 0.00 0.00 0.00 44 1014.8
20260503150205 71 81 6.0 10.0 0.00 0.00 0.00 44 1014.8
20260503140305 72 88 8.0 16.0 0.00 0.00 0.00 37 1015.2
20260503140205 72 86 8.0 16.0 0.00 0.00 0.00 37 1015.1
20260503131406 73 140 3.0 8.0 0.00 0.00 0.00 35 1015.6
20260503131305 73 140 3.0 8.0 0.00 0.00 0.00 35 1015.7
20260503131106 73 136 3.0 8.0 0.00 0.00 0.00 35 1015.7
20260503130908 73 121 3.0 8.0 0.00 0.00 0.00 36 1015.7
20260503130805 73 108 3.0 8.0 0.00 0.00 0.00 37 1015.6
20260503130705 73 97 3.0 8.0 0.00 0.00 0.00 36 1015.7
20260503130615 73 103 3.0 9.0 0.00 0.00 0.00 36 1015.7
20260503130506 73 104 3.0 10.0 0.00 0.00 0.00 36 1015.6
20260503130306 73 103 4.0 11.0 0.00 0.00 0.00 36 1015.7
20260503130206 73 102 4.0 11.0 0.00 0.00 0.00 37 1015.7
20260503130105 73 98 4.0 11.0 0.00 0.00 0.00 38 1015.8
20260503120205 72 84 6.0 10.0 0.00 0.00 0.00 42 1015.8
20260503110505 71 95 4.0 7.0 0.00 0.00 0.00 41 1016.2
20260503110305 71 96 4.0 7.0 0.00 0.00 0.00 42 1016.2
20260503110206 70 97 4.0 7.0 0.00 0.00 0.00 43 1016.3
20260503110106 70 97 3.0 7.0 0.00 0.00 0.00 44 1016.3
20260503100105 69 100 2.0 8.0 0.00 0.00 0.00 50 1016.6
20260503090505 67 92 2.0 5.0 0.00 0.00 0.00 55 1016.9
20260503090405 67 93 2.0 5.0 0.00 0.00 0.00 55 1017.0
20260503090305 66 92 3.0 5.0 0.00 0.00 0.00 54 1016.8
20260503090205 66 90 2.0 5.0 0.00 0.00 0.00 54 1016.9
20260503090105 67 87 2.0 5.0 0.00 0.00 0.00 55 1016.9
20260503081504 65 17 1.0 3.0 0.00 0.00 0.00 62 1017.4
20260503081405 65 25 1.0 3.0 0.00 0.00 0.00 62 1017.5
20260503081308 64 29 1.0 3.0 0.00 0.00 0.00 63 1017.6
20260503081104 64 34 1.0 3.0 0.00 0.00 0.00 63 1017.5
20260503081016 64 40 1.0 3.0 0.00 0.00 0.00 63 1017.5
20260503080905 64 47 2.0 4.0 0.00 0.00 0.00 62 1017.5
20260503080805 64 52 2.0 4.0 0.00 0.00 0.00 62 1017.5
20260503080704 64 58 2.0 4.0 0.00 0.00 0.00 63 1017.6
20260503080605 63 61 2.0 4.0 0.00 0.00 0.00 62 1017.6
20260503080404 64 60 2.0 4.0 0.00 0.00 0.00 60 1017.6
20260503080204 63 53 2.0 4.0 0.00 0.00 0.00 60 1017.6
20260503080104 63 52 2.0 4.0 0.00 0.00 0.00 60 1017.6
20260503072815 62 351 2.0 4.0 0.00 0.00 0.00 63 1017.8
20260503072704 62 351 2.0 4.0 0.00 0.00 0.00 63 1017.8
20260503072604 62 350 2.0 4.0 0.00 0.00 0.00 64 1017.8
20260503072504 62 349 2.0 4.0 0.00 0.00 0.00 64 1017.8
20260503072404 61 349 2.0 5.0 0.00 0.00 0.00 64 1017.8
20260503072306 61 352 2.0 5.0 0.00 0.00 0.00 65 1017.9
20260503072205 61 353 2.0 5.0 0.00 0.00 0.00 65 1017.8
20260503072105 61 350 2.0 5.0 0.00 0.00 0.00 65 1017.8
20260503071804 61 351 3.0 5.0 0.00 0.00 0.00 65 1017.8
20260503071704 61 349 3.0 5.0 0.00 0.00 0.00 65 1017.9
20260503071604 60 350 3.0 5.0 0.00 0.00 0.00 66 1017.9
20260503071507 60 352 2.0 5.0 0.00 0.00 0.00 66 1017.9
20260503071405 60 353 2.0 5.0 0.00 0.00 0.00 66 1018.0
20260503071305 60 350 2.0 5.0 0.00 0.00 0.00 66 1017.8
20260503071216 60 349 2.0 5.0 0.00 0.00 0.00 66 1017.9
20260503071104 60 350 2.0 6.0 0.00 0.00 0.00 66 1017.9
20260503071005 60 351 2.0 6.0 0.00 0.00 0.00 66 1018.0
20260503070905 60 353 2.0 6.0 0.00 0.00 0.00 66 1017.9
20260503070705 60 347 2.0 6.0 0.00 0.00 0.00 67 1018.0
20260503070506 60 339 3.0 6.0 0.00 0.00 0.00 67 1018.1
20260503070404 60 338 3.0 6.0 0.00 0.00 0.00 67 1018.0
20260503070304 60 339 3.0 6.0 0.00 0.00 0.00 67 1018.1
20260503070214 60 341 3.0 6.0 0.00 0.00 0.00 68 1018.1
20260503070104 60 343 3.0 6.0 0.00 0.00 0.00 68 1018.1
20260503060205 56 317 3.0 5.0 0.00 0.00 0.00 73 1018.2
20260503060105 56 319 3.0 5.0 0.00 0.00 0.00 74 1018.1
20260503055105 56 319 3.0 4.0 0.00 0.00 0.00 74 1018.1
20260503055005 56 320 2.0 4.0 0.00 0.00 0.00 74 1018.1
20260503054905 56 320 2.0 4.0 0.00 0.00 0.00 74 1018.1
20260503054804 56 322 2.0 4.0 0.00 0.00 0.00 74 1018.2
20260503054712 56 324 2.0 4.0 0.00 0.00 0.00 74 1018.1
20260503054605 56 328 2.0 4.0 0.00 0.00 0.00 74 1018.2
20260503054505 56 328 2.0 4.0 0.00 0.00 0.00 74 1018.1
20260503054405 56 329 2.0 3.0 0.00 0.00 0.00 74 1018.2
20260503054204 56 327 2.0 3.0 0.00 0.00 0.00 75 1018.1
20260503054104 56 324 2.0 3.0 0.00 0.00 0.00 75 1018.1
20260503054005 56 322 2.0 3.0 0.00 0.00 0.00 75 1018.1
20260503053905 56 319 2.0 3.0 0.00 0.00 0.00 75 1018.0
20260503053713 56 314 2.0 3.0 0.00 0.00 0.00 75 1018.0
20260503053505 56 316 2.0 4.0 0.00 0.00 0.00 75 1018.1
20260503053305 56 318 2.0 4.0 0.00 0.00 0.00 75 1018.1
20260503053205 56 319 2.0 4.0 0.00 0.00 0.00 75 1018.1
20260503053104 55 321 2.0 4.0 0.00 0.00 0.00 75 1018.1
20260503053005 55 324 2.0 4.0 0.00 0.00 0.00 76 1018.1
20260503052904 55 324 3.0 5.0 0.00 0.00 0.00 75 1018.2
20260503052804 55 325 3.0 5.0 0.00 0.00 0.00 75 1018.1
20260503052712 55 327 3.0 5.0 0.00 0.00 0.00 75 1018.1
20260503052605 55 329 3.0 5.0 0.00 0.00 0.00 75 1018.0
20260503052504 55 327 2.0 5.0 0.00 0.00 0.00 75 1018.1
20260503052404 55 327 2.0 5.0 0.00 0.00 0.00 75 1018.1
20260503052005 56 331 2.0 5.0 0.00 0.00 0.00 74 1018.1
20260503051804 56 330 1.0 4.0 0.00 0.00 0.00 74 1018.1
20260503051712 56 326 1.0 3.0 0.00 0.00 0.00 74 1018.1
20260503051605 56 323 1.0 3.0 0.00 0.00 0.00 74 1018.1
20260503051505 56 322 1.0 3.0 0.00 0.00 0.00 75 1018.0
20260503051404 56 319 1.0 3.0 0.00 0.00 0.00 75 1018.0
20260503051305 56 314 1.0 3.0 0.00 0.00 0.00 75 1018.1
20260503051205 56 310 1.0 3.0 0.00 0.00 0.00 75 1018.0
20260503051104 56 305 1.0 3.0 0.00 0.00 0.00 75 1018.1
20260503051005 55 304 1.0 3.0 0.00 0.00 0.00 75 1018.0
20260503050905 56 299 1.0 2.0 0.00 0.00 0.00 75 1018.0
20260503050804 56 299 1.0 2.0 0.00 0.00 0.00 75 1018.0
20260503050712 56 299 1.0 2.0 0.00 0.00 0.00 75 1018.1
20260503050605 55 299 0.0 2.0 0.00 0.00 0.00 75 1018.1
20260503050405 55 299 1.0 2.0 0.00 0.00 0.00 75 1018.1
20260503050304 55 299 1.0 2.0 0.00 0.00 0.00 75 1018.0
20260503050205 55 299 1.0 2.0 0.00 0.00 0.00 75 1018.1
20260503050105 55 300 1.0 2.0 0.00 0.00 0.00 75 1018.0
20260503045905 55 302 1.0 3.0 0.00 0.00 0.00 76 1018.0
20260503045804 55 303 1.0 4.0 0.00 0.00 0.00 76 1018.1
20260503045604 55 301 1.0 4.0 0.00 0.00 0.00 76 1018.2
20260503045505 55 299 1.0 4.0 0.00 0.00 0.00 76 1018.1
20260503045405 55 296 1.0 4.0 0.00 0.00 0.00 76 1018.2
20260503045305 55 293 1.0 4.0 0.00 0.00 0.00 76 1018.2
20260503045204 55 288 2.0 4.0 0.00 0.00 0.00 77 1018.1
20260503045104 55 284 2.0 4.0 0.00 0.00 0.00 76 1018.2
20260503045005 54 277 2.0 4.0 0.00 0.00 0.00 76 1018.1
20260503044905 54 271 2.0 4.0 0.00 0.00 0.00 76 1018.2
20260503044713 54 263 2.0 4.0 0.00 0.00 0.00 77 1018.2
20260503044605 54 264 2.0 4.0 0.00 0.00 0.00 77 1018.1
20260503044505 54 266 2.0 4.0 0.00 0.00 0.00 77 1018.2
20260503044405 54 267 2.0 4.0 0.00 0.00 0.00 77 1018.2
20260503044305 54 265 2.0 4.0 0.00 0.00 0.00 77 1018.2
20260503044104 54 270 2.0 4.0 0.00 0.00 0.00 77 1018.2
20260503044005 54 275 2.0 4.0 0.00 0.00 0.00 77 1018.2
20260503043904 54 280 2.0 4.0 0.00 0.00 0.00 77 1018.1
20260503043804 54 284 2.0 4.0 0.00 0.00 0.00 77 1018.1
20260503043712 54 287 1.0 4.0 0.00 0.00 0.00 77 1018.1
20260503043605 55 288 1.0 4.0 0.00 0.00 0.00 77 1018.2
20260503043505 55 288 1.0 2.0 0.00 0.00 0.00 76 1018.1
20260503043405 55 286 1.0 2.0 0.00 0.00 0.00 76 1018.0
20260503043304 55 289 1.0 2.0 0.00 0.00 0.00 76 1018.1
20260503043205 55 289 1.0 2.0 0.00 0.00 0.00 76 1018.0
20260503043105 55 287 1.0 2.0 0.00 0.00 0.00 76 1018.0